User: anonymous   Login
Location: DaltonSkyGazer Observatory
(42.4858°N, 73.1565°W)
Time: 04:01:24
(UTC-04:00)
Language:

Helios 1B - Orbit

View from above orbital plane
View from above orbital plane
View from above satellite
View from above satellite

Ground track
Ground track

The orbit data is extracted from the following two-line orbital elements,

1 25977U 99064A   15090.20970352  .00002290  00000-0  30076-3 0  9993
2 25977 098.1413 177.3912 0001986 062.0139 350.3443 14.81271540824204
Epoch (UTC): 31 March 2015 05:01:58
Eccentricity: 0.0001986
inclination: 98.1413°
perigee height: 624 km
apogee height: 627 km
right ascension of ascending node: 177.3912°
argument of perigee: 62.0139°
revolutions per day: 14.81271540
mean anomaly at epoch: 350.3443°
orbit number at epoch: 82420

The dashed part of the orbit path shows where the satellite is in the earth's shadow,  

DLR